Погода в Ермакове

Россия / Калининградская область     54°24′14″N   20°55′54″E
темп.,
°C
ветер,
м/с
пор.,
м/с
влажн.,
%
обл.,
%
осадки,
мм/ч
давл.,
гПа
погр.,
м
21 апреля, ср
ср2123:00+6сз227137 0.0 101222
02:00+5зсз337097 0.0 101156
05:00+4зсз33735 0.0 101042
08:00+8зсз35655 0.0 1010233
11:00+13з34515 0.0 1009950
14:00+14зсз57484 0.0 10081393
17:00+13зсз465334 0.0 1008831
20:00+8зсз41070100 0.0 1008430
22 апреля, чт
чт2223:00+6з41182100 0.0 1008515
02:00+5юз498185 0.4 1008518
05:00+3зюз5118088 0.0 1008689
08:00+4юз7117315 0.0 1008852
11:00+7юз81364100 0.1 10071883
14:00+5зюз71189100 1.6 10091000
17:00+5з7127966 0.8 10091302
20:00+3з7128487 0.9 1010941
23 апреля, пт
пт2323:00+3з6119588 0.6 1010771
02:00+2з61294100 1.0 1011897
05:00+2з6119192 0.4 1012844
08:00+4зсз597569 0.6 10131076
11:00+6зсз795035 0.1 10142040
14:00+7зсз784978 0.6 10152139
17:00+5сз785569 0.3 10161822
20:00+2зсз49725 0.4 1017323
24 апреля, сб
сб2423:000з3118096 0.0 1017333
02:00+3зсз61075100 0.0 1017846
05:00+2зсз6117987 0.0 1017686
08:00+4сз6972100 0.1 10181113
11:00+6сз7956100 0.6 10181859
14:00+6сз895298 1.2 10181999
17:00+5сз7106248 0.4 10191627
20:00+2сз6117596 0.5 1020897
25 апреля, вс
вс2523:00+2сз6128995 0.3 10201080
02:00+2сз61174100 0.4 10201026
05:00+1зсз5127740 0.1 1019665
08:00+4сз611626 0.1 10191614
11:00+6сз81150100 0.1 10192126
14:00+5сз81056100 0.2 10191804
17:00+4сз71065100 0.1 10201516
20:00+3сз61067100 0.2 1020964